Regional Weather Roundup
Issued by NWS

Home | Current Version | Previous Version | Text Only | Print | Product List | Glossary On
Versions: 1 2 3 4 5 6 7 8 9 10 11 12 13 14 15 16 17 18 19 20 21 22 23 24 25 26 27 28 29 30 31 32 33 34 35 36 37 38 39 40 41 42 43 44 45 46 47 48 49 50
000
ASUS43 KIND 271109
RWRIN

WEATHER ROUNDUP FOR INDIANA
NATIONAL WEATHER SERVICE INDIANAPOLIS IN
700 AM EDT WED AUG 27 2014

NOTE: "FAIR" INDICATES FEW OR NO CLOUDS BELOW 12,000 FEET WITH NO
SIGNIFICANT WEATHER AND/OR OBSTRUCTIONS TO VISIBILITY.

* - STATION DOES NOT REPORT WEATHER SUCH AS PRECIPITATION OR FOG.

+ - STATION NOT QUALITY CONTROLLED BY THE NATIONAL WEATHER SERVICE.
    USE DATA WITH CAUTION...ESPECIALLY DEWPOINT AND RELATIVE
    HUMIDITY OBSERVATIONS.

INZ001>003-010>013-019-020-271200-
NORTHWEST INDIANA

CITY           SKY/WX    TMP DP  RH WIND       PRES   REMARKS
GARY /AIRPORT/ PTCLDY    68  64  88 E3        30.12S
KNOX *+        CLOUDY    65  63  94 N5        30.12R
LA PORTE +     PTCLDY    63  63 100 CALM      30.13S
MICHIGAN CITY+ CLEAR     63  63 100 CALM      30.13R FOG
MONTICELLO +   CLOUDY    69  69 100 CALM      30.09R FOG
RENSSELAER +   CLOUDY    68  68 100 N5        30.12R
VALPARAISO     MOCLDY    66  62  87 CALM      30.13S

$$

LMZ046-743>745-271200-
SOUTHERN LAKE MICHIGAN

STATION/POSITION TIME  TEMP WIND        PRES
                       AIR  DIR/SP/G
                 (UTC) (F)  (DEG/KT/KT) (MB)
MICHIGAN CITY    1100   68   50/  3/  4   N/A

$$

INZ004-005-014>016-021>024-271200-
NORTH CENTRAL INDIANA

CITY           SKY/WX    TMP DP  RH WIND       PRES   REMARKS
ELKHART        MOCLDY    64  64 100 CALM      30.12
GOSHEN         MOCLDY    66  63  90 N5        30.12S
LOGANSPORT +   FOG       68  66  94 N3        30.11R VSB 3/4
PERU/GRISSOM   FOG       70  70 100 NE6       30.10R VSB 3/4
ROCHESTER +    PTCLDY    70  70 100 CALM      30.12R FOG
SOUTH BEND     CLOUDY    65  62  90 N6        30.13R
WARSAW +       MOCLDY    64  64 100 N3        30.11S

$$

INZ006>009-017-018-025>027-271200-
NORTHEAST INDIANA

CITY           SKY/WX    TMP DP  RH WIND       PRES   REMARKS
ANGOLA *+      PTCLDY    64  63  94 CALM      30.12S
AUBURN +       PTCLDY    68  64  88 N5        30.11S
FORT WAYNE     CLOUDY    70  68  93 N6        30.11R FOG
HUNTINGTON +   FOG       68  68 100 NE3       30.11R VSB 1

$$

INZ028-029-035-036-043>045-051>053-271200-
WEST CENTRAL INDIANA

CITY           SKY/WX    TMP DP  RH WIND       PRES   REMARKS
GREENCASTLE +  MOCLDY    68  68 100 CALM      30.10R FOG
LAFAYETTE      PTCLDY    66  66 100 CALM      30.10R FOG
TERRE HAUTE    PTCLDY    68  66  93 CALM      30.09R FOG

$$

INZ030>032-037>040-046>048-054>057-064-065-271200-
CENTRAL INDIANA

CITY           SKY/WX    TMP DP  RH WIND       PRES   REMARKS
CP ATTERBURY + MOCLDY    66  64  94 CALM      30.11R FOG
COLUMBUS       CLEAR     66  66 100 CALM      30.10  FOG
FRANKFORT +    CLEAR    N/A N/A N/A CALM      30.11R HAZE
INDIANAPOLIS   MOCLDY    72  69  90 S5        30.08S
-EAGLE CREEK   PTCLDY    71  68  90 CALM      30.09R
KOKOMO *+      CLEAR     66  63  88 CALM      30.11R
MARION +       CLEAR     65  64  99 CALM      30.11R FOG
MT COMFORT *+    N/A     68 N/A N/A CALM      30.10S
SHELBYVILLE    MOCLDY    70  67  90 CALM      30.10R FOG
ZIONSVILLE +   PTCLDY    68  65  90 CALM      30.10S FOG

$$

INZ033-034-041-042-049-050-058-059-271200-
EAST CENTRAL INDIANA

CITY           SKY/WX    TMP DP  RH WIND       PRES   REMARKS
MUNCIE         PTCLDY    68  66  93 CALM      30.10R

$$

INZ060-061-067>069-081>083-085>088-271200-
SOUTHWEST INDIANA

CITY           SKY/WX    TMP DP  RH WIND       PRES   REMARKS
EVANSVILLE     CLEAR     74  71  91 N5        30.08R
WASHINGTON +   PTCLDY    69  69 100 CALM      30.08S FOG

$$

INZ062-063-066-070>080-084-089>092-271200-
SOUTH CENTRAL AND SOUTHEAST INDIANA

CITY           SKY/WX    TMP DP  RH WIND       PRES   REMARKS
BEDFORD +      PTCLDY    68  64  88 CALM      30.10  FOG
BLOOMINGTON    PTCLDY    69  67  93 CALM      30.11R FOG

$$



USA.gov is the U.S. government's official web portal to all federal, state and local government web resources and services.